This demonstration page uses our WeatherBlox Daily Observations layout. Learn more.

Left ArrowRight Arrow

Hourly Observations for October 20, 2018

Temp ( °F °C ) Dew Point ( °F °C ) Humidity (%) Winds ( mph kmh ) Pressure ( in mb ) Visibility ( mi km ) Precip ( " mm )
12:53 am 00:53 Clear 41 5 33 0.6 73 73 W 3 6 30.26 1025 7 11 0.00 0.00
1:53 am 01:53 Clear 40 4.4 33 0.6 77 77 WNW 8 13 30.26 1025 9 14 0.00 0.00
2:53 am 02:53 Clear 41 5 33 0.6 73 73 WNW 3 6 30.27 1025 10 16 0.00 0.00
3:53 am 03:53 Clear 39 3.9 32 0 76 76 NW 3 6 30.27 1025 10 16 0.00 0.00
4:53 am 04:53 Clear 39 3.9 32 0 76 76 NW 6 9 30.29 1026 10 16 0.00 0.00
5:53 am 05:53 Clear 40 4.4 32 0 73 73 WNW 9 15 30.30 1026 10 16 0.00 0.00
6:53 am 06:53 Clear 39 3.9 32 0 76 76 WNW 9 15 30.33 1027 10 16 0.00 0.00
7:53 am 07:53 Sunny 37 2.8 31 -0.6 79 79 NW 7 11 30.35 1028 10 16 0.00 0.00
8:53 am 08:53 Sunny 44 6.7 33 0.6 65 65 NNW 13 20 30.38 1029 10 16 0.00 0.00
9:53 am 09:53 Sunny 49 9.4 34 1.1 56 56 N 13 20 30.40 1029 10 16 0.00 0.00
10:53 am 10:53 Sunny 55 12.8 34 1.1 45 45 N 16 26 30.40 1030 10 16 0.00 0.00
11:53 am 11:53 Sunny 58 14.4 32 0 38 38 N 15 24 30.40 1030 10 16 0.00 0.00
12:53 pm 12:53 Sunny 59 15 32 0 36 36 N 20 31 30.40 1030 10 16 0.00 0.00
1:53 pm 13:53 Sunny 61 16.1 31 -0.6 32 32 NNW 20 31 30.38 1029 10 16 0.00 0.00
2:53 pm 14:53 Sunny 62 16.7 30 -1.1 30 30 N 15 24 30.36 1028 10 16 0.00 0.00
3:53 pm 15:53 Sunny 62 16.7 29 -1.7 29 29 NNE 13 20 30.36 1028 10 16 0.00 0.00
4:53 pm 16:53 Sunny 61 16.1 27 -2.8 27 27 N 12 19 30.36 1028 10 16 0.00 0.00
5:53 pm 17:53 Sunny 59 15 27 -2.8 29 29 NNE 10 17 30.36 1028 10 16 0.00 0.00
6:53 pm 18:53 Clear 50 10 27 -2.8 41 41 NE 7 11 30.37 1029 9 14 0.00 0.00
7:53 pm 19:53 Clear 49 9.4 25 -3.9 39 39 E 6 9 30.39 1029 10 16 0.00 0.00
8:53 pm 20:53 Clear 46 7.8 26 -3.3 46 46 E 6 9 30.38 1029 9 14 0.00 0.00
9:53 pm 21:53 Clear 46 7.8 25 -3.9 44 44 ESE 8 13 30.37 1028 10 16 0.00 0.00
10:53 pm 22:53 Clear 44 6.7 24 -4.4 45 45 ESE 8 13 30.36 1028 10 16 0.00 0.00
11:53 pm 23:53 Clear 42 5.6 25 -3.9 51 51 SE 7 11 30.35 1028 10 16 0.00 0.00

Powered by AerisWeather